This is the latest recevied weather packets stored in our database for station/object W4DHW-4. If no packets are shown the sender has not sent any weather packets the latest 10 day(s).
| Time | Temp. | Humidity | Pressure | Rain* | Wind** | Luminosity | Snow |
|---|---|---|---|---|---|---|---|
| 1788139642 | 76° F | 80% | 766.2 mmHg | 0 in | - | 0 W/m² | - |
| 1788139338 | 76° F | 80% | 766.2 mmHg | 0 in | - | 0 W/m² | - |
| 1788139037 | 76° F | 80% | 766 mmHg | 0 in | - | 0 W/m² | - |
| 1788138733 | 77° F | 78% | 766 mmHg | 0 in | - | 0 W/m² | - |
| 1788138429 | 77° F | 78% | 765.9 mmHg | 0 in | - | 0 W/m² | - |
| 1788138129 | 77° F | 78% | 765.8 mmHg | 0 in | - | 0 W/m² | - |
| 1788137828 | 77° F | 77% | 766 mmHg | 0 in | - | 0 W/m² | - |
| 1788137524 | 77° F | 77% | 765.9 mmHg | 0 in | - | 0 W/m² | - |
| 1788137219 | 78° F | 78% | 765.8 mmHg | 0 in | - | 0 W/m² | - |
| 1788136915 | 78° F | 77% | 765.6 mmHg | 0 in | - | 0 W/m² | - |
| 1788136611 | 79° F | 77% | 765.8 mmHg | 0 in | - | 0 W/m² | - |
| 1788136307 | 78° F | 75% | 765.7 mmHg | 0 in | - | 0 W/m² | - |
| 1788136005 | 78° F | 78% | 765.7 mmHg | 0 in | - | 0 W/m² | - |
| 1788135700 | 78° F | 81% | 765.8 mmHg | 0 in | - | 0 W/m² | - |
| 1788135396 | 79° F | 78% | 765.4 mmHg | 0 in | - | 0 W/m² | - |
| 1788135091 | 80° F | 77% | 765.6 mmHg | 0 in | - | 0 W/m² | - |
| 1788134789 | 81° F | 73% | 765.6 mmHg | 0 in | - | 0 W/m² | - |
| 1788134483 | 82° F | 72% | 765.4 mmHg | 0 in | - | 0 W/m² | - |
| 1788134182 | 82° F | 69% | 765.4 mmHg | 0 in | - | 0 W/m² | - |
| 1788133882 | 82° F | 69% | 765.4 mmHg | 0 in | - | 0 W/m² | - |
| 1788133577 | 82° F | 68% | 765.1 mmHg | 0 in | - | 2 W/m² | - |
| 1788133272 | 82° F | 70% | 765.2 mmHg | 0 in | - | 3 W/m² | - |
| 1788132968 | 83° F | 69% | 765.4 mmHg | 0 in | - | 5 W/m² | - |
| 1788132663 | 83° F | 68% | 765.1 mmHg | 0 in | - | 6 W/m² | - |
| 1788132359 | 83° F | 67% | 765.1 mmHg | 0 in | - | 8 W/m² | - |
* Rain latest hour (hover to see other rain measurements)
** Current wind speed in m/s (hover to see current wind gust speed)